Other Public Products
Issued by NWS Grand Forks, ND

Home | Current Version | Previous Version | Text Only | Print | Product List | Glossary On
Versions: 1 2 3 4 5 6 7 8 9 10 11 12 13 14 15 16 17 18 19 20 21 22 23 24 25 26 27 28 29 30 31 32 33 34 35 36 37 38 39 40 41 42 43 44 45 46 47 48 49 50
000
FPUS83 KFGF 130431
OPUFGF
PRAIRIE TO PINES WEATHER ROUNDUP
NATIONAL WEATHER SERVICE EASTERN NORTH DAKOTA/GRAND FORKS ND
1100 PM CDT SAT JUL 12 2014

 **SATELLITE DATA USED TO AUGMENT SKY COVER AT AUTOMATED STATIONS**
 *****  WEATHER ACROSS EASTERN NORTH DAKOTA  *****

CITY           SKY/WX    TMP DP  RH WIND       PRES   REMARKS
GRAND FORKS    CLEAR     56  54  93 W5        29.95R
GRAND FORKS AF NOT AVBL
GRAND CITY NWS   N/A     55 N/A N/A NW5         N/A
BUXTON           N/A     60  59  98 NW6         N/A
DEVILS LAKE    CLEAR     59  54  82 W7        29.98S
FARGO          MOCLDY    64  55  72 N3        29.96R
WAHPETON ARPT  CLEAR     64  50  59 N12       29.96S
$$

 *****  WEATHER ACROSS CENTRAL AND WESTERN NORTH DAKOTA  *****

CITY           SKY/WX    TMP DP  RH WIND       PRES   REMARKS
JAMESTOWN      PTCLDY    61  55  81 N6        30.01R
BISMARCK       PTCLDY    69  54  58 W6        30.05R
MINOT          CLEAR     62  52  69 W8        30.04R
MINOT AFB      NOT AVBL
GARRISON         N/A     60  57  89 NW7       30.06R
WILLISTON      CLEAR     67  53  61 NW9       30.11R
DICKINSON      CLEAR     64  51  62 NW7       30.13R
HETTINGER      CLEAR     60  56  86 NW5       30.16R
$$

 *****  OTHER OBSERVATIONS NORTHEAST NORTH DAKOTA  *****

CITY           SKY/WX    TMP DP  RH WIND       PRES   REMARKS
WALHALLA         N/A     55  55 100 CALM        N/A
LANGDON        FAIR      50  50 100 SW7       29.97S FOG
CAVALIER       FAIR      55  55 100 W3        29.95S FOG
GRAFTON        FAIR      59  59 100 W5        29.96R
CANDO          FAIR      57  50  77 NW10      30.00S
FORT TOTTEN      N/A     56  55  96 CALM      29.95S
ROLLA          FAIR      55  45  67 NW9       30.02R
RUGBY          FAIR      57  54  88 W7        30.01S
 ***** THE ABOVE OBSERVATIONS ARE NON NWS ARE NOT QUALITY
        CONTROLLED AND MAY MIS-REPORT RAIN FOR SNOW...
$$

 *****  OTHER OBSERVATIONS SOUTHEAST NORTH DAKOTA *****

CITY           SKY/WX    TMP DP  RH WIND       PRES   REMARKS
COOPERSTOWN    NOT AVBL
VALLEY CITY    MOCLDY    59  59 100 NW6       30.00R
OAKES          NOT AVBL
GWINNER        CLEAR     68  57  68 N15       30.00R
SHEYENNE NWR     N/A     64  53  68 NE6       29.95S
BUFFALO          N/A     62  51  67 W3          N/A
WYNDMERE       NOT AVBL
 ***** THE ABOVE OBSERVATIONS ARE NON NWS ARE NOT QUALITY
       CONTROLLED AND MAY MIS-REPORT RAIN FOR SNOW...
$$

  *****  WEATHER ACROSS NORTHERN MINNESOTA  *****

CITY           SKY/WX    TMP DP  RH WIND       PRES   REMARKS
FLAG ISLAND    CLEAR     57  48  72 W10       29.87F
WARROAD        CLEAR     52  48  87 SW3       29.92S
ROSEAU         CLEAR     54  48  82 SW3       29.92S
HALLOCK        CLEAR     57  55  94 NW3       29.94S
THF RVR FALLS  PTCLDY    57  55  94 NW8       29.95S
HALSTAD          N/A     60  55  85 NW8         N/A
FOSSTON        MOCLDY    55  54  94 NW5       29.96R
BAUDETTE       PTCLDY    56  47  71 NW12      29.91R
WASKISH        MOCLDY    57  54  88 NW10G18   29.91S
CROOKSTON      CLEAR     54  54 100 W6        29.97R FOG
$$
  *****  WEATHER ACROSS CENTRAL AND WEST MINNESOTA  *****

CITY           SKY/WX    TMP DP  RH WIND       PRES   REMARKS
BEMIDJI        MOCLDY    56  54  93 NW7       29.93R
PARK RAPIDS    CLOUDY    62  52  69 N7        29.93F
WADENA         PTCLDY    61  52  72 N8        29.95R
DETROIT LAKES  PTCLDY    63  54  72 VRB6      29.97S
MOORHEAD       MOCLDY    63  61  94 CALM      29.96F
FERGUS FALLS   CLEAR     64  50  59 N9        29.96R
ELBOW LAKE     FAIR      68  61  77 N10       29.95R
MORRIS MN      CLEAR     70  63  78 W9        29.93F
STAPLES        PTCLDY    63  52  67 N14G20    29.94R
WHEATON        CLEAR     70  61  73 W7        29.96S
$$
  *****  WEATHER ELSEWHERE ACROSS MINNESOTA  *****

CITY           SKY/WX    TMP DP  RH WIND       PRES   REMARKS
DULUTH         PTCLDY    63  58  83 W9        29.85F
INTRNTL FALLS  MOCLDY    55  53  93 NW8       29.87R
ELY            CLOUDY    61  48  63 W9G17     29.87R
CLOQUET        CLEAR     64  57  77 SW6       29.86F
BRAINERD       CLEAR     70  60  70 SW6       29.90F
HIBBING        CLOUDY    58  55  90 CALM      29.89R
ALEXANDRIA     MOCLDY    68  62  81 SW6       29.95S
SAINT CLOUD    CLEAR     65  60  84 S5        29.92F
MINNEAPOLIS    PTCLDY    70  65  84 SW6       29.94F
$$

  *****  WEATHER ACROSS SOUTH DAKOTA  *****

CITY           SKY/WX    TMP DP  RH WIND       PRES   REMARKS
SIOUX FALLS    PTCLDY    71  65  81 CALM      30.02F
BROOKINGS      NOT AVBL
WATERTOWN      MOCLDY    68  64  87 W6        30.02R
HURON          CLEAR     71  65  81 W6        30.02R
SISSETON         N/A     70  63  78 W7        29.95S
ABERDEEN       PTCLDY    67  63  87 W5        30.01R
MITCHELL       CLEAR     72  66  81 SW5       30.03S
PIERRE         CLEAR     71  62  73 SW6       30.06R
MOBRIDGE       PTCLDY    65  63  93 N5        30.04R
RAPID CITY     PTCLDY    66  63  90 NW6       30.19R
$$

  *****  SOME WEATHER IN NEARBY STATES *****

CITY           SKY/WX    TMP DP  RH WIND       PRES   REMARKS
GLASGOW MT     NOT AVBL
GREAT FALLS MT CLEAR     68  43  40 CALM      30.21R
CHEYENNE WY    PTCLDY    66  54  65 SE7       30.38R
SCOTTSBLUFF NE LGT RAIN  69  65  86 NE6       30.26R
OMAHA NE       PTCLDY    72  67  84 N7        30.00F
DES MOINES IA  PTCLDY    72  67  84 N7        29.98R
DAVENPORT IA   LGT RAIN  71  70  96 NW6       29.93R FOG
CHICAGO IL     TSTM      74  67  78 W20G37    29.89R
EAU CLAIRE WI  PTCLDY    65  64  97 W5        29.93R
LA CROSSE WI   FOG       64  63  96 SE3       29.93F VSB 1/2
$$

  *****  SOME NATIONAL WEATHER *****

CITY           SKY/WX    TMP DP  RH WIND       PRES   REMARKS
LA GUARDIA NY  MOCLDY    74  62  66 S9        30.13F
RALEIGH NC     PTCLDY    77  67  71 VRB6      30.16S
ATLANTA GA     PTCLDY    78  68  71 SE3       30.15S
NEW ORLEANS LA PTCLDY    83  74  74 CALM      30.09R
OKLAHOMA CITY  CLEAR     76  59  55 S6        30.06R
ALBUQUERQUE NM PTCLDY    79  46  31 SE13      30.19R
SALT LAKE CITY PTCLDY    84  58  40 NW7       30.13R
LOS ANGELES CA PTCLDY    68  61  78 SW7       29.94R
BOISE ID       CLEAR     90  39  16 CALM      30.04R
SEATTLE WA     CLEAR     80  54  40 N6        30.07S
$$

*** WEATHER ACROSS MANITOBA...SASKATCHEWAN AND ONTARIO ***
                ***ONTARIO***

CITY           SKY/WX    TMP DP  RH WIND       PRES   REMARKS
GERALDTON      MOCLDY    61  52  72 SW8       29.70F
THUNDER BAY    PTCLDY    61  55  82 W6        29.74F
SIOUX LOOKOUT  PTCLDY    54  50  87 NW7       29.79R
TORONTO        MOCLDY    73  61  64 S7        29.96F
BIG TROUT LK   MOCLDY    52  48  87 W3        29.54F
PICKLE LAKE    NOT AVBL
DRYDEN         CLEAR     52  50  93 SW7       29.81S
KENORA         CLEAR     52  48  87 W7        29.87S
$$
                *** MANITOBA***

CITY           SKY/WX    TMP DP  RH WIND       PRES   REMARKS
BRANDON        PTCLDY    55  48  76 NW9       29.99R
DAUPHIN        CLEAR     55  45  67 W7        29.95R
ISLAND LAKE    LGT RAIN  50  46  87 W13G18    29.63F
PILOT MOUND      N/A     52  50  93 SW2         N/A
THE PAS        MOCLDY    57  46  67 NW16      29.91
THOMPSON       LGT RAIN  48  48 100 NW16G23   29.69S
WINNIPEG       PTCLDY    55  46  71 W7        29.92S
LYNN LAKE      CLOUDY    52  46  82 NW16G26   29.90R
CHURCHILL      LGT RAIN  43  41  93 N22       29.58S
GILLAM         PTCLDY    48  46  93 N15       29.57
$$
                ***SASKATCHEWAN***

CITY           SKY/WX    TMP DP  RH WIND       PRES   REMARKS
ESTEVAN        PTCLDY    55  48  76 NW7       30.09
KINDERSLEY     PTCLDY    63  55  77 NE7       30.18
LLOYDMINSTER   CLEAR     63  50  63 NW6       30.17R
PRINCE ALBERT  CLEAR     55  43  62 W9        30.09S
REGINA         PTCLDY    55  48  76 NW6       30.11R


USA.gov is the U.S. government's official web portal to all federal, state and local government web resources and services.